ARIRANG-5 (KOMPSAT-5)

Last updated on Sun Sep 20 2026 00:02:44 GMT+0000 (Coordinated Universal Time)

1 39227U 13042A 26262.54156431 .00001188 00000+0 89275-4 0 9992 2 39227 97.6203 87.9308 0003351 148.1774 211.9655 15.04473348718049
UTC large
Height (km)
Speed (km/s)
/
Latitude / Longitude
Inclination (degrees)
Orbital Period (minutes)
Azimuth
Elevation
Range (km)
Doppler Factor

Next 0 passes for location: London (51.5072 / 0.1276)

No passes found over London.
ARIRANG-5 (KOMPSAT-5)